RH
38 37 36 34 32 30 30 32 33 32 30 28 27 27 27 27 26 26 26 27 24 20 21 21 23 25 23 19 18 19 20 20 20 19 16 13 11 10 8 7 6 6 6 7 7 6 6 5 5 6 6 7 8 8 9 10 11 11 14 16 14 13 12 11 11 11 9 9 9 10 10 9 9 11 11 11 12 12 12 14 13 14 13 12 12 12 12 12
37 35 33 30 27 26 27 27 29 29 27 27 28 27 27 26 27 27 27 27 25 23 24 23 23 21 18 17 18 18 20 20 20 19 15 12 10 9 7 6 5 5 6 6 6 6 6 5 5 6 6 7 7 8 9 9 9 11 14 15 13 12 12 10 9 9 8 8 8 9 10 9 9 10 11 10 10 10 12 13 13 13 13 13 13 12 12 11
33 31 29 28 27 28 29 29 30 29 28 29 29 27 25 25 27 27 27 25 23 24 25 25 24 18 14 15 17 18 20 21 20 18 15 13 11 8 6 5 5 5 6 6 7 6 6 6 6 6 6 6 7 8 8 9 9 10 12 14 13 12 10 8 8 8 8 8 8 9 10 10 9 10 11 10 10 10 11 11 12 13 12 13 13 12 12 11
29 28 27 27 28 28 29 31 30 29 29 29 28 24 22 25 26 26 26 24 23 24 23 24 21 16 13 14 16 18 20 21 20 17 15 14 12 9 6 4 5 6 6 6 6 6 6 6 6 6 6 6 7 7 7 8 9 9 10 12 12 10 9 8 9 9 9 9 8 9 10 10 10 11 11 10 10 10 10 11 11 12 12 12 12 12 12 11
28 28 28 27 27 27 28 29 29 30 29 27 25 22 21 23 23 24 26 26 25 22 18 19 18 15 15 15 17 19 21 23 20 16 15 13 12 11 8 5 4 5 6 7 7 7 6 6 6 6 7 7 7 8 8 8 8 9 9 10 9 9 8 8 9 9 9 9 9 9 10 9 10 11 11 10 10 10 11 11 11 11 11 11 12 12 13 12
27 28 28 26 25 26 27 27 27 27 26 24 23 20 21 23 23 24 26 26 23 18 15 16 18 18 19 19 19 20 23 24 20 16 15 13 12 11 9 7 5 5 6 7 7 7 7 7 6 7 7 7 8 8 8 8 8 9 10 9 9 9 8 9 9 10 10 9 8 9 9 10 11 10 10 10 10 10 11 11 11 11 11 11 12 13 13 13
25 26 27 25 24 26 27 26 25 25 23 22 21 19 19 22 22 24 26 24 19 16 16 18 19 21 21 21 22 22 22 22 19 17 16 14 12 9 7 6 5 5 6 6 7 7 7 7 6 7 7 7 8 8 8 8 8 9 9 8 9 9 9 10 10 9 10 9 9 10 10 10 10 9 9 10 11 10 11 11 11 11 11 12 12 13 12 13
26 26 26 25 24 26 27 25 24 22 22 21 18 17 17 19 20 21 23 23 18 16 17 18 20 22 22 23 24 23 22 20 18 16 14 13 12 10 7 6 6 5 5 6 7 7 7 6 7 7 8 9 9 8 9 8 8 9 9 9 9 9 9 10 10 10 10 9 9 10 10 9 9 10 10 11 11 11 11 11 12 11 12 12 12 12 12 13
28 27 26 25 26 27 26 23 21 21 20 18 16 15 15 16 18 18 21 23 20 17 16 17 21 22 22 23 23 21 18 17 15 12 10 8 8 8 8 8 8 7 6 6 6 7 7 7 7 7 8 9 9 10 10 9 10 10 10 9 9 9 10 11 10 10 10 10 10 10 9 9 10 11 10 10 10 10 10 12 12 12 12 13 12 13 13 13
30 29 27 26 27 26 24 21 20 20 19 17 16 16 16 16 18 18 21 22 21 19 18 19 21 22 22 22 22 18 15 14 12 9 7 6 6 7 8 8 8 8 7 7 7 7 7 7 7 7 8 9 9 11 11 11 12 12 11 10 9 10 10 11 10 10 11 10 11 11 10 10 11 12 10 9 10 10 11 12 13 13 14 15 15 15 15 14
31 29 27 27 27 24 23 22 20 19 18 17 17 17 18 20 20 20 20 22 22 22 22 22 23 23 23 22 21 17 14 14 11 8 7 7 7 8 8 8 8 8 8 8 7 7 7 7 8 8 9 9 10 11 12 12 12 11 11 11 10 10 10 11 10 11 11 11 12 12 11 11 12 13 11 11 11 12 13 14 15 14 15 16 17 17 17 16
31 29 28 28 26 24 23 22 20 18 18 18 18 19 20 22 24 22 20 22 23 24 24 24 24 24 23 22 21 17 14 13 11 10 8 8 8 9 9 9 8 8 8 8 7 7 7 7 8 9 10 10 11 12 12 12 12 12 12 12 11 11 10 10 10 12 12 12 13 13 12 12 13 14 12 12 13 13 14 14 15 16 16 17 18 19 18 17
30 29 28 27 24 23 24 22 19 17 18 19 20 20 21 24 26 24 22 24 25 26 26 25 25 23 21 21 19 16 13 10 10 9 9 9 9 10 9 8 8 8 8 8 8 8 8 8 9 9 10 11 13 13 12 12 13 12 12 12 11 12 12 11 11 12 12 12 13 14 13 12 12 14 13 13 14 14 15 15 16 16 16 17 18 19 19 18
28 27 25 24 24 23 23 20 17 16 18 21 24 23 23 25 26 25 24 25 27 29 28 27 25 21 20 19 15 13 11 9 8 9 9 9 10 10 8 8 8 8 9 9 9 9 9 9 9 9 10 12 13 13 12 12 12 13 13 13 13 13 14 14 13 13 13 13 14 14 15 12 12 14 13 14 14 15 15 15 15 16 16 17 17 18 18 17
25 24 22 23 23 23 21 19 17 18 20 23 25 26 26 26 25 24 24 26 28 30 30 28 26 23 22 19 14 11 10 9 9 10 9 9 9 9 8 8 9 9 9 10 9 9 9 9 10 11 11 12 13 13 13 12 12 12 13 14 15 15 15 14 13 13 13 14 14 15 16 14 13 13 14 15 15 15 15 15 15 15 15 16 16 16 16 17
24 23 22 23 23 22 21 19 18 18 20 22 22 23 25 27 27 25 25 26 27 27 27 28 26 26 25 20 15 13 11 12 12 11 10 9 8 9 9 10 10 10 10 10 10 10 10 10 11 12 13 12 13 13 13 14 14 14 14 13 14 14 13 14 14 15 15 15 15 16 15 14 13 14 15 15 15 15 15 15 15 14 14 15 15 16 16 17
22 23 22 22 22 23 23 21 20 19 20 20 22 24 25 27 29 29 27 26 27 26 25 24 22 22 23 19 16 14 13 13 12 11 9 8 8 9 10 11 11 10 11 11 10 10 10 11 11 12 13 13 13 12 13 15 15 15 16 14 13 13 13 14 15 16 16 16 16 16 16 15 14 15 15 15 15 16 15 15 15 14 15 14 15 16 17 18
21 20 19 18 18 21 23 24 22 21 21 21 25 28 29 29 31 31 30 28 28 27 24 20 17 18 19 16 14 13 12 11 10 10 9 9 10 10 10 11 11 11 11 10 10 10 11 11 12 12 12 12 12 13 14 15 15 15 15 13 12 13 13 13 16 17 16 17 17 16 16 15 15 15 16 16 16 16 16 16 15 15 15 15 16 17 17 18
17 16 16 16 16 18 22 23 22 22 22 22 24 28 30 32 33 34 33 30 29 28 24 19 15 15 15 12 11 11 10 10 10 11 12 12 11 11 10 11 11 11 11 10 11 11 11 12 12 12 13 13 13 13 13 14 15 15 14 14 13 13 13 13 17 19 17 18 18 16 16 16 15 15 15 16 16 16 16 16 16 16 16 17 17 17 18 19
15 14 15 16 16 16 19 21 23 23 24 25 25 26 30 33 34 35 33 28 27 27 23 18 14 13 12 11 11 11 11 11 12 13 13 12 10 10 11 11 11 11 11 13 13 12 13 12 12 13 14 14 13 13 14 14 15 15 14 15 14 14 13 13 17 19 18 18 17 16 17 16 16 15 15 16 15 15 16 16 16 16 17 18 18 18 18 19
21 17 15 15 15 15 17 19 22 25 26 29 30 28 28 29 31 31 28 23 22 21 19 16 13 13 13 13 13 13 13 12 12 12 11 11 10 10 11 11 11 11 12 15 15 13 13 12 12 13 13 13 14 14 15 15 16 15 15 14 13 14 14 15 18 19 19 19 17 16 17 16 15 15 15 15 15 16 16 16 17 17 17 18 18 19 19 21
28 22 17 16 16 16 17 17 20 24 27 30 32 29 25 24 24 23 22 21 18 16 16 15 14 15 15 15 14 13 12 10 10 10 10 10 10 10 11 11 10 12 13 14 14 13 13 13 14 14 13 14 15 15 16 16 17 16 15 14 14 15 15 17 20 20 19 19 17 17 17 16 15 15 15 16 16 17 17 17 18 18 18 19 19 20 21 22
31 26 18 17 18 17 18 18 18 22 26 28 27 25 22 19 18 16 16 17 15 13 12 12 14 15 15 14 14 12 11 10 10 10 9 10 11 10 11 11 11 12 13 12 12 12 12 15 16 14 14 15 15 16 16 16 16 15 14 14 15 16 17 18 20 20 19 18 18 19 20 18 16 16 16 17 17 18 19 19 20 19 20 20 20 22 23 24
31 27 20 18 20 18 18 17 17 19 22 24 22 20 17 16 13 13 15 15 14 12 10 10 11 11 11 11 11 12 12 11 11 11 10 10 12 11 11 13 12 12 12 13 13 12 14 15 16 16 15 15 15 16 16 15 14 14 15 16 16 17 17 17 18 19 18 19 22 22 21 18 17 17 17 18 19 18 19 19 20 20 21 22 22 24 25 26
26 27 23 21 22 20 18 16 15 16 18 19 19 18 16 15 13 13 14 14 14 14 12 13 12 11 12 12 12 12 12 12 11 11 11 11 11 13 14 13 12 13 14 15 14 13 15 16 17 16 15 15 15 16 15 15 14 14 16 18 18 17 18 19 19 19 18 20 24 23 21 19 17 17 18 19 18 18 19 19 19 20 21 23 24 25 26 28
24 25 24 24 24 23 21 18 13 13 16 18 17 17 16 15 13 13 14 14 14 16 17 16 15 15 15 15 14 13 14 14 13 11 11 11 11 14 15 14 13 14 16 15 14 14 16 17 17 17 15 16 16 15 15 16 14 15 19 20 19 18 19 19 20 21 20 20 23 23 22 21 18 18 19 19 19 19 20 19 20 21 23 24 25 26 27 29
23 24 25 24 24 26 27 24 16 11 13 15 15 14 14 14 14 14 16 16 15 16 17 17 16 16 16 16 14 14 16 16 14 13 12 11 12 13 14 14 14 15 16 15 13 16 19 17 17 16 16 16 16 15 15 15 16 18 21 20 19 19 20 21 21 21 21 21 21 21 23 23 20 19 19 18 19 21 22 21 22 23 25 26 27 28 29 31
23 25 27 25 27 30 31 29 23 14 10 10 10 10 10 11 11 13 17 17 15 16 18 17 15 14 14 14 14 15 15 14 14 15 13 12 13 14 14 15 15 15 17 15 13 16 20 18 17 17 16 16 15 16 17 17 18 20 21 21 20 21 21 22 22 21 22 24 23 22 24 23 21 21 21 20 22 23 23 24 24 25 27 28 29 30 31 33
23 25 28 28 30 34 34 32 29 20 13 10 9 9 9 9 9 12 14 13 13 16 17 16 15 14 14 15 14 14 14 14 14 14 12 13 13 14 15 16 16 16 18 17 14 17 20 18 18 18 16 16 16 17 19 19 19 21 22 22 21 22 22 22 22 22 25 26 23 22 24 23 21 20 21 24 25 25 25 25 26 28 29 30 31 32 34 36
24 25 28 29 33 35 34 33 30 23 18 14 11 10 10 10 10 12 11 10 13 15 14 15 15 15 15 15 14 14 14 15 15 13 13 14 13 14 15 16 17 17 17 17 16 18 21 20 20 20 18 17 17 19 20 20 21 22 22 21 21 21 21 21 21 22 25 26 24 23 24 24 22 19 21 25 25 26 26 27 28 30 31 33 33 35 38 39
26 26 29 32 35 36 34 31 27 22 18 14 13 12 12 11 11 11 9 10 14 15 14 15 15 15 15 14 13 14 15 15 16 15 15 14 14 15 16 16 16 16 16 17 18 21 22 20 20 21 20 18 18 19 21 22 21 20 20 19 19 19 20 23 23 25 28 27 26 25 25 26 24 20 21 24 25 27 29 30 32 33 33 35 37 39 42 43
27 29 32 35 37 35 32 28 24 19 15 13 13 12 13 12 10 9 9 10 13 14 13 14 15 15 15 15 15 15 16 16 17 17 17 16 15 15 17 17 15 15 14 15 17 19 20 20 20 21 21 20 19 18 20 21 20 19 18 19 21 20 21 24 25 25 28 29 28 26 26 27 23 21 23 26 27 29 31 33 35 36 37 39 40 41 42 43
28 32 36 38 36 34 32 27 21 16 12 11 11 11 12 11 9 10 9 9 12 13 14 15 15 16 16 15 15 16 17 18 17 18 19 19 16 16 19 19 17 17 15 14 15 15 18 20 21 21 20 20 19 17 18 19 19 19 19 20 22 23 25 27 25 25 27 29 28 26 27 27 23 22 25 26 29 31 33 36 37 38 40 41 41 42 43 43
30 34 38 37 35 34 33 28 23 19 15 14 13 11 9 8 8 11 9 9 12 14 16 17 15 15 16 15 16 17 17 17 18 18 18 18 15 14 16 18 19 18 15 15 15 15 16 18 20 20 19 19 19 17 19 19 18 19 19 21 23 24 28 29 27 28 29 28 27 28 29 27 25 26 27 29 32 34 37 39 40 41 42 42 43 44 43 43
31 33 37 37 36 35 32 29 26 23 21 21 18 12 9 7 7 9 10 11 13 14 15 17 16 15 15 15 17 18 17 16 17 16 15 15 13 13 14 16 18 18 15 16 16 16 16 16 19 20 19 19 19 20 21 20 20 20 19 21 24 24 26 27 26 27 29 29 29 30 30 26 26 29 29 31 35 36 38 39 41 42 42 43 43 43 42 43
33 35 36 37 36 32 28 26 24 22 22 24 20 14 10 9 8 10 13 15 15 14 14 15 15 13 13 14 15 17 17 15 15 14 13 13 14 15 15 16 18 18 16 16 16 17 17 16 20 21 19 19 19 21 22 22 22 21 20 23 25 24 25 27 27 26 29 33 32 31 30 27 29 32 32 34 36 37 39 40 41 42 41 42 42 43 44 46
35 36 36 35 31 26 23 22 21 20 22 22 19 14 11 12 12 14 17 17 16 15 13 12 14 13 12 13 13 14 15 15 13 13 12 13 15 16 16 17 20 19 18 18 18 17 18 17 19 20 20 21 22 22 22 23 23 22 22 24 24 26 27 29 31 30 33 37 34 32 33 31 33 36 35 36 37 38 39 41 42 42 43 44 46 48 51 53
34 34 32 28 24 20 19 18 17 18 21 20 15 12 13 14 16 18 19 18 16 15 13 12 13 13 12 12 12 12 14 14 12 12 11 12 14 17 17 18 20 21 20 21 19 18 18 18 19 20 20 21 22 22 21 23 24 23 24 25 26 30 32 32 36 37 39 42 37 34 37 35 34 36 37 38 39 40 41 42 43 44 46 49 52 54 57 58
31 27 25 20 18 18 18 17 17 17 17 15 11 11 14 16 18 20 19 19 18 14 12 12 13 13 12 12 12 12 13 13 11 11 12 12 14 18 18 18 21 22 22 22 20 18 19 19 19 20 20 20 20 20 20 22 25 25 26 27 28 31 34 35 38 40 41 43 42 41 41 38 36 36 37 40 42 43 45 46 48 50 53 56 58 59 59 58
23 20 21 19 17 17 16 14 14 13 13 11 10 12 16 17 20 21 19 18 18 15 12 12 12 12 12 12 12 12 12 12 12 12 12 13 15 18 21 20 21 21 22 23 21 18 20 20 20 20 21 20 20 20 20 21 25 27 29 32 33 34 35 37 38 39 41 43 44 46 45 39 37 37 39 43 45 48 51 53 55 57 59 61 61 61 56 50
18 20 20 17 14 13 11 11 12 12 10 10 12 15 18 19 20 20 19 19 18 15 14 13 13 12 12 12 12 12 12 12 13 12 13 15 15 17 23 26 26 24 22 21 21 20 20 21 21 22 21 20 21 23 23 23 25 27 30 33 35 37 38 40 42 42 42 43 43 46 46 40 37 40 42 46 51 54 56 58 60 61 62 61 59 54 47 42
18 19 15 12 10 9 9 11 13 12 10 11 13 16 19 21 19 18 19 19 17 16 15 14 14 13 13 13 13 14 13 13 13 14 15 16 16 19 27 31 31 28 23 20 20 22 21 21 23 23 22 21 24 25 25 26 28 29 32 33 35 38 40 42 44 44 44 45 43 46 50 45 42 46 50 53 57 58 57 59 61 59 56 54 49 44 40 39
15 13 10 9 9 8 9 11 12 12 11 13 15 17 19 20 18 16 17 18 17 16 15 15 15 15 15 15 15 14 15 15 15 15 15 16 19 26 33 34 31 27 23 20 20 22 21 22 25 25 22 23 26 27 27 29 31 33 34 35 36 40 42 42 43 43 45 46 46 51 55 53 52 55 57 60 62 60 59 59 56 51 47 44 42 40 38 37
10 9 9 9 8 8 10 11 11 10 11 15 16 16 17 18 18 17 16 16 16 15 14 15 16 16 16 17 16 16 16 16 16 17 17 16 21 29 34 33 29 25 24 24 23 24 23 23 26 27 25 26 27 29 30 32 33 33 34 36 37 41 45 45 43 45 49 49 51 57 58 56 58 59 58 61 62 60 58 54 48 44 41 38 37 36 36 36
9 8 8 8 7 9 11 11 11 10 11 14 14 14 15 16 18 18 17 17 18 16 15 16 17 17 17 18 18 18 18 17 16 18 19 18 23 31 33 31 29 28 29 30 28 27 26 25 28 30 30 31 31 33 34 34 33 32 32 36 38 42 47 49 48 53 57 56 58 62 59 56 59 61 59 58 56 52 49 43 40 39 36 34 34 35 37 38
9 9 9 9 8 9 10 11 11 10 11 12 12 13 14 14 17 18 18 19 19 18 17 18 18 18 18 19 19 18 19 19 19 20 21 19 21 28 31 32 33 33 34 32 29 29 28 28 30 32 33 34 34 34 34 32 31 32 35 40 44 49 53 54 57 60 62 62 63 64 63 60 59 59 56 52 49 46 41 37 36 35 33 34 36 39 40 40
9 10 10 10 10 10 11 12 13 12 12 12 11 13 13 13 14 16 18 20 20 20 19 19 20 19 19 19 19 17 20 21 21 22 23 22 21 23 27 32 35 36 36 34 32 31 30 30 33 33 33 32 31 31 31 32 34 37 42 46 50 55 60 61 63 63 65 69 67 64 64 63 57 52 50 48 46 42 38 36 36 36 37 39 41 42 41 38
9 11 11 10 11 11 11 13 14 14 14 13 13 14 14 13 14 15 18 21 21 21 20 19 20 20 19 20 19 19 20 21 21 24 25 24 23 23 26 32 36 36 35 34 32 31 30 31 34 35 32 29 30 32 34 38 42 44 48 52 54 59 64 67 68 66 68 73 69 62 60 55 49 46 46 46 44 40 37 38 39 41 42 42 42 40 37 35
9 10 11 11 12 12 12 14 16 16 16 15 14 16 16 15 15 16 18 20 21 22 21 19 20 20 20 21 21 20 20 19 20 25 28 28 28 26 26 31 35 35 33 30 30 31 29 29 34 36 33 32 35 39 42 46 49 50 53 56 57 60 64 68 70 67 66 65 61 54 49 45 44 45 44 43 42 40 39 41 42 43 43 42 40 34 32 35
10 11 12 12 14 14 14 16 17 17 17 15 16 18 18 17 18 19 20 20 20 22 23 21 21 22 23 23 21 20 21 21 21 24 28 29 30 29 27 28 30 31 30 28 27 28 27 30 36 40 40 41 43 46 48 49 52 55 56 58 59 60 62 64 64 61 57 53 48 45 42 40 41 41 39 38 40 42 44 43 40 39 39 38 35 33 36 39
11 13 13 14 15 16 16 17 18 18 17 16 17 19 20 20 21 21 22 22 22 23 25 24 22 23 23 23 22 23 26 28 28 29 30 30 29 28 27 26 26 27 28 28 29 31 33 38 42 46 48 48 47 48 50 52 55 59 60 60 59 58 58 57 54 50 47 45 42 41 42 41 39 37 35 36 40 45 47 43 38 34 33 33 35 41 44 42
13 14 14 15 16 17 17 17 18 17 17 18 19 21 22 22 23 24 23 23 25 25 24 24 23 22 22 24 27 30 32 33 34 33 32 31 30 28 26 26 25 26 28 33 38 42 45 47 48 51 53 51 50 52 54 56 61 64 62 58 56 53 51 48 43 41 41 42 42 41 41 41 40 40 38 36 38 41 43 43 41 37 36 39 45 48 47 45